Location: Nitra
(0.0000°N, 18.0833°E)
Time: 08:52:06
(UTC+02:00)

A-11 Canister half - Pass Details

Date: 06 April 2023
Orbit: 1513 x 1686 km, 47.2° (Epoch: 02 June)

Event Time Altitude Azimuth Distance (km) Brightness Sun altitude
Exits shadow 05:38:54 23° 257° (WSW) 2,987 9.9 -17.7°
Maximum altitude 05:42:11 28° 229° (SW) 2,751 9.9 -16.9°
Drops below altitude 10° 05:50:10 10° 174° (S) 3,846 11.1 -14.9°
Sets 05:53:56 0° 162° (SSE) 4,805 11.7 -14.0°
